Weather History for Chipley, FL

Change the Weather History Date:

Friday, January 25, 2013

  Actual Average (KMAI) Record (KMAI)
Temperature  
Mean Temperature 66 °F 51 °F  
Max Temperature 73 °F 62 °F 80 °F (2012)
Min Temperature 59 °F 40 °F 21 °F (2003)
Degree Days  
Heating Degree Days 0    
Month to date heating degree days  
Since 1 July heating degree days  
Cooling Degree Days 1    
Month to date cooling degree days  
Year to date cooling degree days  
Growing Degree Days 16 (Base 50)    
Moisture  
Dew Point 55 °F    
Average Humidity 69    
Maximum Humidity 82    
Minimum Humidity 53    
Precipitation  
Precipitation 0.00 in 0.19 in 0.65 in (2002)
Month to date precipitation 3.91  
Year to date precipitation 3.91  
Sea Level Pressure  
Sea Level Pressure 30.22 in    
Wind  
Wind Speed 7 mph (SSW)    
Max Wind Speed 14 mph    
Max Gust Speed 23 mph    
Visibility 10 miles    
Events      
T = Trace of Precipitation, MM = Missing Value Source: NWS Daily Summary

Daily Weather History Graph

Daily Weather History Graph

Search for Another Location

Airport:

Trip Planner

Search our weather history database for the weather conditions in past years. The results will help you decide how hot, cold, wet, or windy it might be!

Date:

Astronomy

Jan. 25, 2013 Rise Set
Actual Time 6:37 AM CST 5:12 PM CST
Civil Twilight 6:11 AM CST 5:38 PM CST
Nautical Twilight 5:42 AM CST 6:07 PM CST
Astronomical Twilight 5:14 AM CST 6:35 PM CST
Moon 4:08 PM CST (1/25) 5:15 AM CST (1/25)
Length of Visible Light 11h 26m
Length of Day
10h 34m
Waxing Gibbous, 98% of the Moon is Illuminated
Jan 25
Waxing Gibbous
Jan 26
Full
Feb 3
Last Quarter
Feb 10
New
Feb 17
First Quarter

Hourly Weather History & Observations

Time (CST) Temp. Dew Point Humidity Pressure Visibility Wind Dir Wind Speed Gust Speed Precip Events Conditions
12:15 AM 62.6 °F 53.6 °F 72% 30.26 in 10.0 mi South 6.9 mph - N/A   Clear
12:35 AM 60.8 °F 55.4 °F 82% 30.26 in 10.0 mi South 5.8 mph - N/A   Clear
12:55 AM 60.8 °F 53.6 °F 77% 30.26 in 10.0 mi South 5.8 mph - N/A   Clear
1:15 AM 60.8 °F 53.6 °F 77% 30.26 in 10.0 mi South 4.6 mph - N/A   Clear
1:35 AM 60.8 °F 53.6 °F 77% 30.26 in 10.0 mi South 5.8 mph - N/A   Clear
1:55 AM 60.8 °F 53.6 °F 77% 30.26 in 10.0 mi South 5.8 mph - N/A   Clear
2:15 AM 60.8 °F 53.6 °F 77% 30.25 in 10.0 mi South 5.8 mph - N/A   Clear
2:35 AM 60.8 °F 53.6 °F 77% 30.25 in 10.0 mi South 5.8 mph - N/A   Clear
2:55 AM 60.8 °F 53.6 °F 77% 30.24 in 10.0 mi South 8.1 mph - N/A   Clear
3:15 AM 60.8 °F 53.6 °F 77% 30.23 in 10.0 mi South 6.9 mph - N/A   Clear
3:35 AM 59.0 °F 53.6 °F 82% 30.23 in 10.0 mi South 5.8 mph - N/A   Clear
3:55 AM 59.0 °F 53.6 °F 82% 30.22 in 9.0 mi South 6.9 mph - N/A   Clear
4:15 AM 59.0 °F 53.6 °F 82% 30.23 in 9.0 mi South 4.6 mph - N/A   Clear
4:35 AM 59.0 °F 53.6 °F 82% 30.23 in 10.0 mi South 3.5 mph - N/A   Clear
4:55 AM 59.0 °F 53.6 °F 82% 30.24 in 10.0 mi South 4.6 mph - N/A   Clear
5:15 AM 59.0 °F 53.6 °F 82% 30.24 in 10.0 mi South 3.5 mph - N/A   Clear
5:35 AM 59.0 °F 53.6 °F 82% 30.25 in 10.0 mi South 4.6 mph - N/A   Clear
5:55 AM 60.8 °F 53.6 °F 77% 30.25 in 10.0 mi South 5.8 mph - N/A   Clear
6:15 AM 59.0 °F 53.6 °F 82% 30.26 in 10.0 mi South 5.8 mph - N/A   Clear
6:35 AM 59.0 °F 53.6 °F 82% 30.26 in 10.0 mi South 4.6 mph - N/A   Clear
6:55 AM 60.8 °F 55.4 °F 82% 30.26 in 7.0 mi South 6.9 mph - N/A   Clear
7:35 AM 60.8 °F 53.6 °F 77% 30.26 in 8.0 mi South 6.9 mph - N/A   Clear
7:55 AM 60.8 °F 55.4 °F 82% 30.26 in 8.0 mi South 6.9 mph - N/A   Clear
8:15 AM 60.8 °F 55.4 °F 82% 30.26 in 7.0 mi South 6.9 mph - N/A   Clear
8:35 AM 60.8 °F 55.4 °F 82% 30.26 in 8.0 mi South 8.1 mph - N/A   Clear
8:55 AM 62.6 °F 55.4 °F 77% 30.27 in 10.0 mi SSW 6.9 mph - N/A   Clear
9:15 AM 64.4 °F 55.4 °F 73% 30.28 in 10.0 mi South 5.8 mph - N/A   Clear
9:35 AM 68.0 °F 55.4 °F 64% 30.28 in 10.0 mi South 10.4 mph - N/A   Clear
9:55 AM 68.0 °F 55.4 °F 64% 30.28 in 10.0 mi SSW 11.5 mph 16.1 mph N/A   Clear
10:15 AM 69.8 °F 55.4 °F 60% 30.27 in 10.0 mi South 11.5 mph - N/A   Clear
10:35 AM 69.8 °F 53.6 °F 56% 30.27 in 10.0 mi SSW 12.7 mph 20.7 mph N/A   Clear
10:55 AM 69.8 °F 55.4 °F 60% 30.26 in 10.0 mi SSW 9.2 mph 17.3 mph N/A   Clear
11:15 AM 71.6 °F 55.4 °F 57% 30.27 in 10.0 mi SSW 10.4 mph 17.3 mph N/A   Clear
11:35 AM 71.6 °F 55.4 °F 57% 30.25 in 10.0 mi South 10.4 mph - N/A   Partly Cloudy
11:55 AM 71.6 °F 55.4 °F 57% 30.24 in 10.0 mi SSW 13.8 mph 20.7 mph N/A   Partly Cloudy
12:15 PM 73.4 °F 55.4 °F 53% 30.23 in 10.0 mi South 10.4 mph 17.3 mph N/A   Clear
12:35 PM 73.4 °F 55.4 °F 53% 30.22 in 10.0 mi South 10.4 mph 20.7 mph N/A   Clear
12:55 PM 73.4 °F 55.4 °F 53% 30.20 in 10.0 mi South 10.4 mph 18.4 mph N/A   Clear
1:15 PM 73.4 °F 55.4 °F 53% 30.19 in 10.0 mi South 13.8 mph 23.0 mph N/A   Clear
1:35 PM 73.4 °F 55.4 °F 53% 30.19 in 10.0 mi SSW 9.2 mph 19.6 mph N/A   Clear
1:55 PM 73.4 °F 55.4 °F 53% 30.19 in 10.0 mi SSW 11.5 mph 17.3 mph N/A   Clear
2:15 PM 73.4 °F 55.4 °F 53% 30.19 in 10.0 mi SSW 10.4 mph 17.3 mph N/A   Clear
2:35 PM 73.4 °F 55.4 °F 53% 30.18 in 10.0 mi SSW 10.4 mph 19.6 mph N/A   Clear
2:55 PM 73.4 °F 55.4 °F 53% 30.18 in 10.0 mi South 13.8 mph - N/A   Clear
3:15 PM 73.4 °F 55.4 °F 53% 30.19 in 10.0 mi SW 10.4 mph 19.6 mph N/A   Clear
3:35 PM 73.4 °F 55.4 °F 53% 30.19 in 10.0 mi SSW 9.2 mph - N/A   Scattered Clouds
3:55 PM 73.4 °F 55.4 °F 53% 30.18 in 10.0 mi SSW 10.4 mph 18.4 mph N/A   Partly Cloudy
4:15 PM 71.6 °F 55.4 °F 57% 30.17 in 10.0 mi South 11.5 mph 19.6 mph N/A   Clear
4:35 PM 71.6 °F 57.2 °F 60% 30.17 in 10.0 mi South 12.7 mph 18.4 mph N/A   Clear
4:55 PM 71.6 °F 57.2 °F 60% 30.18 in 10.0 mi SSW 9.2 mph - N/A   Clear
5:15 PM 69.8 °F 57.2 °F 64% 30.18 in 10.0 mi SSW 9.2 mph - N/A   Clear
5:35 PM 69.8 °F 57.2 °F 64% 30.18 in 10.0 mi SSW 9.2 mph - N/A   Clear
5:55 PM 69.8 °F 57.2 °F 64% 30.18 in 10.0 mi SSW 8.1 mph - N/A   Clear
6:15 PM 69.8 °F 57.2 °F 64% 30.18 in 10.0 mi South 6.9 mph - N/A   Clear
6:35 PM 69.8 °F 57.2 °F 64% 30.18 in 10.0 mi SSW 8.1 mph - N/A   Clear
6:55 PM 69.8 °F 57.2 °F 64% 30.18 in 10.0 mi South 6.9 mph - N/A   Clear
7:15 PM 69.8 °F 57.2 °F 64% 30.18 in 10.0 mi SSW 6.9 mph - N/A   Clear
7:35 PM 69.8 °F 57.2 °F 64% 30.18 in 10.0 mi South 8.1 mph - N/A   Clear
7:55 PM 69.8 °F 57.2 °F 64% 30.18 in 10.0 mi SSW 5.8 mph - N/A   Clear
8:15 PM 69.8 °F 57.2 °F 64% 30.18 in 10.0 mi South 6.9 mph - N/A   Clear
8:35 PM 66.2 °F 57.2 °F 73% 30.18 in 10.0 mi SSW 5.8 mph - N/A   Clear
8:55 PM 66.2 °F 57.2 °F 73% 30.19 in 10.0 mi South 6.9 mph - N/A   Clear
9:15 PM 66.2 °F 57.2 °F 73% 30.19 in 10.0 mi SSW 5.8 mph - N/A   Clear
9:35 PM 64.4 °F 57.2 °F 77% 30.20 in 10.0 mi SSW 4.6 mph - N/A   Clear
9:55 PM 64.4 °F 57.2 °F 77% 30.21 in 10.0 mi SSW 4.6 mph - N/A   Clear
10:15 PM 64.4 °F 57.2 °F 77% 30.21 in 10.0 mi SSW 3.5 mph - N/A   Clear
10:35 PM 64.4 °F 57.2 °F 77% 30.21 in 10.0 mi SSW 3.5 mph - N/A   Clear
10:55 PM 64.4 °F 57.2 °F 77% 30.21 in 10.0 mi SSW 3.5 mph - N/A   Clear
11:15 PM 62.6 °F 57.2 °F 82% 30.21 in 10.0 mi SSW 4.6 mph - N/A   Clear
11:35 PM 64.4 °F 57.2 °F 77% 30.21 in 10.0 mi South 4.6 mph - N/A   Partly Cloudy
11:55 PM 62.6 °F 57.2 °F 82% 30.21 in 10.0 mi South 4.6 mph - N/A   Mostly Cloudy